Date String (YYYY-MM-DD hh:mm:ss) UTC,Instrument flags,absolute air pressure of the measurement (hPa),sample flow rate (lpm),inlet stack bypass flow (lpm),air temperature of the measurement (°C),ambient temperature measured by the external sensor (°C),aerosol sample conditioner tube jacket temperature (°C),OPC LED temperature (°C),internal box temperature (°C),relative humidity of the measurement (%),span deviation,mass concentration of particles derived from Lorenz-Mie calculation of OPC scattering (μg/m³),mass concentration of particles derived from Lorenz-Mie calculation of OPC scattering (μg/m³),mass concentration of particles derived from Lorenz-Mie calculation of OPC scattering (μg/m³)
DateTimeUTC,F1_M11,P_M11,Q1_M11,Q2_M11,T1_M11,T2_M11,T3_M11,T4_M11,T5_M11,U1_M11,ZSPAN_M11,X0_M11,X2_M11,X1_M11
2023-09-19 12:00:00,SystemResetWarning,0827.8,5.01,000.00,028.4,025.0,000.0,036.9,029.6,17.2,0000.0,0002.29,0001.50,0001.22
2023-09-19 12:01:00,SystemResetWarning,0827.8,5.00,000.00,028.3,025.3,000.0,036.9,029.7,17.3,0000.0,0002.30,0001.52,0001.22
2023-09-19 12:02:00,SystemResetWarning,0827.8,5.00,000.00,028.3,025.5,000.0,036.9,029.7,17.2,0000.0,0002.30,0001.52,0001.22
2023-09-19 12:03:00,SystemResetWarning,0827.8,4.99,000.00,028.3,025.8,000.0,036.8,029.8,17.3,0000.0,0003.04,0001.52,0001.21
2023-09-19 12:04:00,SystemResetWarning,0827.7,4.99,000.00,028.3,025.9,000.0,036.8,029.8,17.3,0000.0,0003.26,0001.48,0001.19
2023-09-19 12:05:00,SystemResetWarning,0827.8,5.00,000.00,028.3,026.1,000.0,036.8,029.8,17.3,0000.0,0003.19,0001.48,0001.20
2023-09-19 12:06:00,SystemResetWarning,0827.8,5.01,000.00,028.3,026.2,000.0,036.7,029.8,17.4,0000.0,0003.07,0001.47,0001.21
2023-09-19 12:07:00,SystemResetWarning,0827.8,5.00,000.00,028.2,026.3,000.0,036.7,029.8,17.3,0000.0,0003.07,0001.48,0001.20
2023-09-19 12:08:00,SystemResetWarning,0827.8,5.00,000.00,028.3,026.4,000.0,036.7,029.8,17.4,0000.0,0003.09,0001.49,0001.20
2023-09-19 12:09:00,SystemResetWarning,0827.8,4.99,000.00,028.3,026.5,000.0,036.7,029.8,17.4,0000.0,0003.16,0001.51,0001.19
2023-09-19 12:10:00,SystemResetWarning,0827.8,5.00,000.00,028.3,026.6,000.0,036.7,029.8,17.4,0000.0,0003.15,0001.52,0001.19
2023-09-19 12:11:00,SystemResetWarning,0827.8,4.99,000.00,028.3,026.6,000.0,036.7,029.8,17.3,0000.0,0003.97,0001.52,0001.19
2023-09-19 12:12:00,SystemResetWarning,0827.8,5.00,000.00,028.3,026.7,000.0,036.7,029.8,17.3,0000.0,0004.59,0001.54,0001.20
2023-09-19 12:13:00,SystemResetWarning,0827.8,5.01,000.00,028.3,026.7,000.0,036.7,029.8,17.3,0000.0,0004.65,0001.56,0001.20
2023-09-19 12:14:00,SystemResetWarning,0827.7,5.00,000.00,028.3,026.7,000.0,036.7,029.9,17.2,0000.0,0004.23,0001.57,0001.21
2023-09-19 12:15:00,SystemResetWarning,0827.8,5.01,000.00,028.3,026.8,000.0,036.7,029.9,17.1,0000.0,0003.76,0001.61,0001.21
2023-09-19 12:16:00,SystemResetWarning,0827.8,5.00,000.00,028.3,026.8,000.0,036.7,029.9,17.2,0000.0,0003.91,0001.61,0001.21
2023-09-19 12:17:00,SystemResetWarning,0827.8,5.00,000.00,028.3,026.8,000.0,036.7,029.9,17.2,0000.0,0004.04,0001.62,0001.21
2023-09-19 12:18:00,SystemResetWarning,0827.9,5.00,000.00,028.3,026.8,000.0,036.7,029.9,17.0,0000.0,0004.03,0001.62,0001.22
2023-09-19 12:19:00,SystemResetWarning,0827.8,4.99,000.00,028.4,026.9,000.0,036.7,029.9,17.0,0000.0,0004.05,0001.63,0001.22
2023-09-19 12:20:00,SystemResetWarning,0827.8,5.00,000.00,028.4,026.9,000.0,036.7,030.0,17.0,0000.0,0004.03,0001.63,0001.23
2023-09-19 12:21:00,SystemResetWarning,0827.8,5.00,000.00,028.4,026.9,000.0,036.7,030.0,17.0,0000.0,0004.05,0001.61,0001.24
2023-09-19 12:22:00,SystemResetWarning,0827.8,5.01,000.00,028.4,026.9,000.0,036.7,030.0,17.0,0000.0,0003.53,0001.61,0001.24
2023-09-19 12:23:00,SystemResetWarning,0827.9,5.01,000.00,028.4,026.9,000.0,036.7,030.0,16.9,0000.0,0002.72,0001.63,0001.24
2023-09-19 12:24:00,SystemResetWarning,0828.0,5.00,000.00,028.4,026.9,000.0,036.7,030.0,17.0,0000.0,0002.68,0001.62,0001.25
2023-09-19 12:25:00,SystemResetWarning,0828.0,4.99,000.00,028.4,027.0,000.0,036.7,030.0,16.9,0000.0,0002.73,0001.63,0001.25
2023-09-19 12:26:00,SystemResetWarning,0828.0,4.99,000.00,028.4,027.0,000.0,036.7,030.0,16.9,0000.0,0002.62,0001.59,0001.25
2023-09-19 12:27:00,SystemResetWarning,0828.0,5.00,000.00,028.4,027.0,000.0,036.8,030.0,16.9,0000.0,0002.51,0001.63,0001.26
2023-09-19 12:28:00,SystemResetWarning,0828.1,5.00,000.00,028.4,027.0,000.0,036.8,030.0,16.9,0000.0,0002.27,0001.60,0001.26
2023-09-19 12:29:00,SystemResetWarning,0828.0,5.01,000.00,028.5,027.0,000.0,036.8,030.1,16.9,0000.0,0002.34,0001.58,0001.25
2023-09-19 12:30:00,SystemResetWarning,0828.0,5.01,000.00,028.5,027.0,000.0,036.8,030.1,16.9,0000.0,0002.36,0001.58,0001.26
2023-09-19 12:31:00,SystemResetWarning,0828.0,5.01,000.00,028.5,027.0,000.0,036.8,030.1,17.0,0000.0,0002.34,0001.57,0001.25
2023-09-19 12:32:00,SystemResetWarning,0828.1,5.00,000.00,028.5,027.0,000.0,036.8,030.1,16.9,0000.0,0002.29,0001.56,0001.26
2023-09-19 12:33:00,SystemResetWarning,0828.1,5.00,000.00,028.5,027.0,000.0,036.8,030.2,17.0,0000.0,0002.90,0001.55,0001.26
2023-09-19 12:34:00,SystemResetWarning,0828.0,5.00,000.00,028.5,027.1,000.0,036.8,030.1,17.0,0000.0,0003.41,0001.55,0001.25
2023-09-19 12:35:00,SystemResetWarning,0828.0,5.00,000.00,028.5,027.1,000.0,036.8,030.1,16.9,0000.0,0003.44,0001.56,0001.25
2023-09-19 12:36:00,SystemResetWarning,0828.1,4.99,000.00,028.5,027.1,000.0,036.8,030.2,16.8,0000.0,0003.39,0001.56,0001.27
2023-09-19 12:37:00,SystemResetWarning,0828.1,5.00,000.00,028.5,027.1,000.0,036.8,030.2,16.9,0000.0,0003.41,0001.57,0001.27
2023-09-19 12:38:00,SystemResetWarning,0828.1,4.99,000.00,028.6,027.1,000.0,036.8,030.2,17.0,0000.0,0003.36,0001.53,0001.27
2023-09-19 12:39:00,SystemResetWarning,0828.1,5.01,000.00,028.6,027.1,000.0,036.8,030.2,17.0,0000.0,0003.36,0001.52,0001.27
2023-09-19 12:40:00,SystemResetWarning,0828.1,5.00,000.00,028.6,027.1,000.0,036.9,030.2,17.0,0000.0,0003.17,0001.49,0001.26
2023-09-19 12:41:00,SystemResetWarning,0828.1,5.00,000.00,028.6,027.1,000.0,036.9,030.2,17.0,0000.0,0003.14,0001.48,0001.27
2023-09-19 12:42:00,SystemResetWarning,0828.1,4.99,000.00,028.6,027.1,000.0,036.9,030.2,16.8,0000.0,0003.15,0001.49,0001.27
2023-09-19 12:43:00,SystemResetWarning,0828.1,5.00,000.00,028.6,027.1,000.0,036.9,030.2,16.8,0000.0,0003.18,0001.50,0001.28
2023-09-19 12:44:00,SystemResetWarning,0828.1,5.00,000.00,028.6,027.1,000.0,036.9,030.2,16.8,0000.0,0003.85,0001.52,0001.29
2023-09-19 12:45:00,SystemResetWarning,0828.1,5.00,000.00,028.6,027.2,000.0,036.9,030.2,16.7,0000.0,0003.11,0001.50,0001.30
2023-09-19 12:46:00,SystemResetWarning,0828.0,5.00,000.00,028.6,027.2,000.0,036.9,030.2,16.6,0000.0,0003.30,0001.48,0001.30
2023-09-19 12:47:00,SystemResetWarning,0828.0,5.01,000.00,028.6,027.2,000.0,036.9,030.2,16.8,0000.0,0004.54,0001.49,0001.29
2023-09-19 12:48:00,SystemResetWarning,0828.0,5.00,000.00,028.6,027.2,000.0,036.9,030.2,16.8,0000.0,0004.64,0001.51,0001.28
2023-09-19 12:49:00,SystemResetWarning,0828.0,5.00,000.00,028.6,027.2,000.0,036.9,030.2,16.8,0000.0,0004.62,0001.50,0001.28
2023-09-19 12:50:00,SystemResetWarning,0828.1,5.00,000.00,028.6,027.2,000.0,036.9,030.2,16.8,0000.0,0004.76,0001.51,0001.28
2023-09-19 12:51:00,SystemResetWarning,0828.0,5.01,000.00,028.6,027.2,000.0,036.9,030.3,16.8,0000.0,0004.79,0001.51,0001.28
2023-09-19 12:52:00,SystemResetWarning,0828.1,5.00,000.00,028.7,027.2,000.0,037.0,030.2,16.7,0000.0,0004.75,0001.49,0001.27
2023-09-19 12:53:00,SystemResetWarning,0828.0,4.99,000.00,028.7,027.2,000.0,037.0,030.3,16.7,0000.0,0004.72,0001.49,0001.28
2023-09-19 12:54:00,SystemResetWarning,0828.1,4.99,000.00,028.7,027.2,000.0,037.0,030.3,16.7,0000.0,0004.69,0001.47,0001.26
2023-09-19 12:55:00,SystemResetWarning,0828.1,4.99,000.00,028.7,027.2,000.0,037.0,030.3,16.7,0000.0,0003.70,0001.49,0001.26
2023-09-19 12:56:00,SystemResetWarning,0828.1,4.99,000.00,028.7,027.2,000.0,037.0,030.3,16.7,0000.0,0003.64,0001.51,0001.26
2023-09-19 12:57:00,SystemResetWarning,0828.2,5.00,000.00,028.7,027.2,000.0,037.0,030.3,16.6,0000.0,0003.46,0001.50,0001.25
2023-09-19 12:58:00,SystemResetWarning,0828.2,5.00,000.00,028.7,027.2,000.0,037.0,030.3,16.5,0000.0,0002.22,0001.49,0001.26
2023-09-19 12:59:00,SystemResetWarning,0828.2,5.00,000.00,028.7,027.2,000.0,037.0,030.3,16.6,0000.0,0002.20,0001.48,0001.28
